Wind_Speed
4 6 8 8 7 6 6 7 8 8 10 10 9 9 11 13 14 15 17 19 20 20 21 21 21 21 22 22 21 21 19 20 21 22 22 22 22 22 21 23 24 23 20 16 14 13 12 13 15 19 20 19 19 18 16 16 17 18 17 15 15 14 14
5 7 9 9 9 10 9 8 8 8 9 10 9 9 11 13 16 16 17 19 20 20 21 21 21 21 22 23 23 22 22 22 22 21 23 25 25 24 23 23 24 25 23 20 17 15 15 15 13 16 19 19 20 20 18 16 17 19 18 17 16 15 14
5 7 9 10 10 11 11 10 10 10 10 10 10 10 12 14 16 17 18 18 18 19 21 21 20 21 23 24 24 23 22 23 23 23 24 25 27 27 26 24 24 24 25 25 23 19 17 17 16 16 18 21 22 22 20 18 19 19 18 18 17 16 15
6 6 7 10 11 12 12 12 13 13 12 11 12 12 14 14 15 17 18 18 17 17 19 20 21 22 23 24 25 24 24 25 25 24 25 26 28 28 28 27 26 24 25 26 26 24 22 21 20 19 20 22 24 23 21 20 20 19 19 18 18 17 15
8 7 7 8 10 12 12 13 14 15 15 13 13 14 14 13 14 15 16 17 17 18 18 19 20 21 22 24 25 25 26 26 27 27 27 28 29 29 29 29 28 26 25 24 23 24 25 24 23 21 21 22 25 24 21 21 21 20 20 19 18 18 16
9 8 9 8 9 11 11 13 13 15 17 15 15 16 14 14 14 13 14 15 17 19 19 19 20 21 22 23 25 26 26 27 27 28 29 29 29 30 30 29 29 27 25 24 22 22 23 23 23 22 21 23 26 24 20 21 21 21 20 20 20 19 17
7 7 7 7 8 10 11 13 14 15 16 15 15 16 15 16 15 14 15 17 18 18 19 20 21 21 21 22 24 26 27 26 26 28 29 29 29 29 29 29 29 28 25 24 23 22 23 23 22 22 19 20 22 21 20 20 21 23 22 22 21 20 19
10 9 8 6 6 9 11 12 14 15 15 15 16 16 16 17 18 18 18 19 19 19 19 20 20 21 21 22 24 26 27 26 26 27 28 28 29 29 29 29 29 28 26 25 24 23 24 22 21 21 18 17 18 19 20 20 21 23 23 23 21 22 23
12 12 11 9 7 7 9 11 13 15 16 16 16 17 17 18 20 21 21 20 18 19 21 21 20 20 21 22 23 25 27 26 26 27 27 27 29 29 30 30 29 29 27 25 25 24 24 23 22 21 20 19 19 19 21 22 22 23 22 23 24 24 25
12 12 13 12 11 8 7 8 11 14 15 16 16 17 18 18 20 23 24 22 19 19 21 23 23 21 20 22 23 25 27 26 26 27 27 27 28 29 30 30 29 29 27 26 26 25 25 25 24 22 21 22 21 20 21 21 23 24 23 25 26 25 25
14 13 12 13 13 11 7 6 10 13 15 16 16 18 19 19 19 22 24 23 21 21 21 23 23 22 21 22 24 25 26 26 27 27 27 27 27 27 29 29 29 29 28 27 27 26 25 26 26 25 23 22 21 20 20 20 21 22 23 25 26 27 26
16 16 15 15 14 12 9 7 9 12 14 15 16 17 19 19 19 20 21 22 22 22 22 22 22 22 21 22 23 24 26 27 27 26 27 28 28 27 27 28 29 28 28 28 28 26 26 27 28 26 24 22 22 22 20 20 20 20 22 26 27 27 28
17 18 18 17 16 14 12 10 10 12 13 14 15 17 18 19 19 19 20 20 21 22 23 22 21 21 21 22 23 24 25 27 28 28 27 28 29 28 28 28 28 27 28 29 28 27 27 28 28 26 24 25 26 25 22 21 22 20 21 25 28 28 27
17 18 18 18 18 17 17 15 12 12 13 13 14 16 17 18 18 19 19 19 19 20 21 21 20 21 21 23 23 23 24 26 28 29 28 28 29 30 29 28 28 27 28 28 28 28 28 28 29 27 26 28 29 27 25 24 22 20 21 25 28 28 27
17 18 18 18 19 19 20 19 14 12 13 13 12 14 17 18 18 19 18 18 18 19 21 21 21 21 22 24 24 24 24 26 28 29 29 29 30 30 29 28 28 28 27 27 28 29 29 29 29 29 28 29 29 28 28 27 23 21 21 24 27 28 27
18 19 19 20 20 19 19 20 18 15 14 12 11 12 16 18 18 19 20 20 19 20 22 22 22 23 24 25 26 26 26 27 29 30 30 30 30 30 29 28 28 27 26 27 27 28 28 28 29 30 30 29 29 29 29 29 27 25 23 23 27 28 27
20 21 22 22 22 21 19 19 19 18 17 15 13 13 14 15 16 17 19 20 20 21 22 23 24 25 27 27 27 28 28 28 29 30 29 29 28 27 28 29 29 28 26 26 27 28 28 29 29 30 30 30 31 31 30 28 29 29 26 24 26 27 28
21 22 23 24 24 23 22 20 20 19 18 17 16 15 15 16 15 15 16 19 20 22 22 23 24 26 28 28 27 28 28 28 29 30 29 29 28 27 28 29 29 28 27 27 28 29 29 29 30 29 30 31 32 33 33 31 30 30 28 25 26 29 30
22 22 22 22 23 22 22 23 21 20 19 18 17 17 18 18 18 17 16 17 17 19 20 22 24 25 26 27 27 28 29 29 30 30 30 30 29 28 28 28 29 30 29 27 28 30 29 29 30 30 30 32 33 33 35 34 30 28 27 26 28 31 30
21 21 20 20 20 20 21 22 21 21 20 19 19 20 20 21 21 20 20 19 17 16 18 21 22 22 24 24 25 26 29 30 29 29 31 31 29 29 28 28 31 32 29 27 27 30 31 30 31 30 30 32 33 34 34 33 29 27 25 25 28 31 31
20 20 18 19 19 20 20 21 22 22 21 20 20 21 21 22 23 23 24 24 21 19 18 18 18 19 21 22 21 23 25 28 28 28 30 29 28 29 28 30 32 30 28 28 27 28 30 30 31 30 29 31 33 34 35 31 28 26 26 27 26 25 29
19 19 18 18 19 19 19 21 23 24 23 22 21 20 20 20 22 23 24 25 25 24 22 21 20 20 20 22 23 24 23 24 25 27 28 28 28 29 30 31 31 28 27 28 28 27 27 29 31 29 28 30 32 34 34 30 26 24 24 28 27 21 21
19 20 20 20 19 19 19 20 22 23 24 24 22 20 20 19 18 19 20 21 23 23 23 26 28 26 22 20 22 24 25 25 24 26 28 29 30 30 30 31 30 28 27 28 27 27 27 29 31 28 27 30 31 32 32 30 27 24 22 26 28 25 22
20 20 21 21 20 20 20 19 20 22 24 26 25 23 22 21 20 19 18 18 18 18 20 25 28 29 27 24 23 24 26 27 26 26 27 29 30 30 29 31 32 29 27 27 27 27 28 31 30 27 28 30 31 33 32 29 25 23 22 24 26 28 28
21 21 22 22 23 23 21 20 19 21 23 25 27 27 26 25 24 22 19 18 18 16 17 21 24 27 29 29 29 29 28 28 28 27 26 27 30 30 29 31 33 30 28 27 26 25 28 30 28 26 27 29 31 32 30 25 22 21 23 24 24 26 29
21 22 22 23 24 25 25 24 22 22 23 24 26 27 28 28 28 27 25 22 21 20 19 20 21 23 26 27 29 31 31 30 29 28 26 27 29 30 29 29 30 28 27 27 25 26 28 28 28 27 26 28 30 30 27 23 22 21 21 23 24 25 27
21 22 23 23 24 24 26 27 25 24 23 24 25 26 26 27 28 28 28 28 27 26 25 25 25 24 22 23 26 30 32 31 30 29 28 28 28 29 29 30 29 27 27 28 26 26 28 29 28 28 27 28 28 27 26 24 23 22 20 20 23 24 25
22 22 23 24 24 23 24 26 27 26 24 24 24 24 24 26 27 27 27 28 28 28 28 29 30 30 27 22 21 25 30 31 30 28 28 28 29 28 28 29 29 27 27 28 25 24 28 30 30 28 28 28 25 24 25 24 22 22 20 19 21 24 26
22 22 23 24 24 24 24 25 26 27 25 24 23 23 23 25 27 27 26 26 26 28 29 30 31 33 33 27 20 18 22 26 27 27 28 27 27 27 27 28 29 27 27 26 24 23 27 31 30 29 29 28 25 24 24 23 21 20 19 19 19 22 24
22 23 24 24 25 25 25 25 26 26 26 25 25 24 24 24 26 27 26 26 27 28 29 30 30 32 35 32 24 18 15 16 19 24 27 25 24 26 29 30 29 27 26 25 23 23 26 28 28 28 27 26 25 24 23 22 21 19 19 18 17 18 20
22 23 23 24 25 25 24 25 25 25 24 24 25 25 25 25 26 27 27 26 27 27 29 30 30 31 33 32 27 22 18 13 13 18 23 24 23 25 29 30 26 24 25 25 23 23 24 24 24 25 25 24 25 25 23 21 20 19 18 18 17 17 19
23 24 24 24 25 25 23 23 23 23 22 22 23 24 25 26 28 29 27 26 27 27 28 29 29 29 30 30 27 23 18 13 10 10 13 18 21 23 28 29 25 24 25 23 21 22 22 21 21 22 23 23 23 22 20 17 16 17 17 17 17 17 19
24 24 24 24 25 25 24 23 23 23 22 22 22 22 23 25 28 30 29 28 27 28 28 28 28 27 26 26 26 24 21 17 13 10 7 9 11 15 24 27 25 25 23 18 17 19 19 18 18 18 19 19 17 16 16 15 13 14 16 17 17 18 19
24 24 24 24 25 27 27 24 24 24 23 23 22 22 22 23 25 28 29 29 29 29 28 28 28 27 26 25 24 23 24 22 18 15 11 6 1 10 16 19 21 23 22 16 14 15 17 17 16 16 16 15 14 14 16 17 15 15 16 18 19 20 20
24 24 24 24 24 27 30 29 26 25 25 25 24 24 23 22 23 25 27 29 29 29 28 28 27 27 26 25 24 23 23 22 19 16 11 6 4 11 18 18 18 19 19 16 14 15 17 17 14 12 11 11 11 12 15 17 16 16 17 18 20 21 21
22 24 24 24 23 25 30 32 31 28 28 28 28 27 26 24 23 25 27 28 28 27 27 28 28 28 27 26 25 23 22 21 19 17 14 9 7 12 17 17 16 14 14 16 15 16 17 15 11 9 8 8 10 11 13 15 16 16 16 17 18 19 18
19 20 22 23 23 24 28 32 33 30 30 31 31 32 30 28 26 26 27 29 28 26 26 26 27 29 28 27 25 23 22 20 19 17 16 13 11 14 14 12 11 11 13 15 15 15 14 12 10 9 8 8 9 10 12 14 15 15 16 16 17 17 16
Wind_Direction
343 322 312 301 299 298 296 299 293 283 281 281 279 276 275 276 272 262 252 247 245 244 242 241 241 240 237 233 230 231 230 227 228 229 224 220 221 226 228 229 232 235 235 235 234 229 229 234 232 229 230 228 229 229 223 221 216 209 208 213 218 213 206
318 309 305 299 300 298 295 296 290 281 282 282 279 274 276 279 278 272 262 252 249 246 243 242 243 243 239 234 232 232 229 226 225 224 222 222 223 227 230 229 230 232 230 230 234 235 232 235 237 232 232 229 225 224 222 219 213 209 209 211 215 213 208
299 302 305 302 299 293 291 294 289 280 278 281 283 280 278 277 276 277 273 261 252 246 245 243 242 243 241 238 237 236 232 227 225 224 223 223 225 228 230 229 228 228 227 225 227 231 228 230 236 235 234 230 223 220 216 213 210 208 207 208 211 210 208
287 289 301 304 299 292 287 287 289 285 279 277 281 281 280 279 276 275 276 274 265 253 249 248 246 245 244 241 241 241 238 233 231 229 228 227 229 230 230 230 231 230 228 228 229 231 229 230 235 236 236 232 226 222 216 211 211 206 203 204 206 207 206
282 284 297 307 305 301 293 287 287 287 284 282 280 281 283 286 284 277 274 278 274 263 255 253 253 252 248 245 244 244 243 238 234 234 232 231 231 231 231 231 232 232 232 233 232 232 233 235 238 240 241 233 224 221 217 212 208 203 203 204 204 206 207
283 284 286 296 310 313 306 297 293 289 286 284 282 282 283 284 281 275 272 272 271 265 257 255 257 255 251 247 244 245 245 241 239 238 237 235 233 234 235 233 232 232 233 234 231 230 230 233 236 237 240 236 221 211 212 213 204 199 206 209 204 203 209
312 310 297 293 301 307 311 307 301 295 290 286 284 282 278 274 271 270 269 267 266 266 260 256 256 254 252 249 245 244 245 243 243 243 242 239 238 239 237 235 233 233 234 233 230 229 227 229 233 231 233 239 225 207 208 213 203 197 205 209 201 197 208
338 338 333 315 290 293 306 308 302 300 299 293 290 288 279 269 268 270 269 265 266 269 266 261 257 254 253 250 248 246 245 245 245 245 244 242 241 240 237 234 233 234 236 234 231 231 230 232 235 232 227 230 226 212 208 209 203 201 205 206 199 194 204
344 344 344 336 309 285 287 299 305 305 305 301 296 294 288 278 274 275 273 269 268 270 270 266 261 255 252 250 250 250 248 248 247 246 245 243 241 239 236 234 233 235 237 235 233 232 231 232 231 228 222 219 220 213 204 202 203 204 203 201 198 198 204
348 348 346 339 331 312 286 287 301 305 306 305 300 297 296 290 285 280 278 274 271 269 269 268 264 259 255 253 251 251 252 250 249 248 246 243 240 238 237 235 235 237 238 235 233 230 229 229 225 222 219 219 224 215 200 200 206 205 202 201 199 199 203
348 349 345 335 330 326 313 288 295 307 309 305 303 301 299 296 292 287 282 277 272 269 270 271 269 263 259 256 252 250 252 252 250 248 246 244 243 241 238 237 237 237 236 233 231 229 227 226 224 223 219 220 227 223 208 205 209 207 206 206 202 200 201
349 348 344 338 333 328 319 297 291 302 306 305 305 305 303 301 298 293 286 279 273 270 271 275 274 268 263 261 258 254 254 254 250 248 247 246 246 244 241 239 237 235 233 231 231 228 225 223 223 223 220 218 222 222 216 211 209 206 204 204 203 203 202
349 346 340 339 340 333 322 312 300 295 295 300 306 307 307 307 304 299 291 284 278 272 272 275 276 272 269 268 266 263 262 260 255 252 250 248 246 246 243 239 237 235 233 233 232 228 224 223 223 222 219 220 222 220 218 216 214 211 207 207 207 206 204
343 339 337 337 338 334 330 328 320 305 292 290 302 309 308 306 303 300 296 290 284 277 274 275 274 271 269 270 270 269 269 268 264 258 252 248 247 246 244 242 241 239 236 235 234 230 227 224 224 224 221 223 225 221 218 218 217 215 212 211 211 208 204
339 337 337 336 335 334 335 335 332 320 303 293 303 316 316 310 304 301 300 296 291 284 279 275 274 272 270 271 272 271 270 269 266 260 252 248 248 248 247 245 243 240 237 236 234 231 229 225 225 225 223 225 227 223 220 218 215 215 215 212 211 208 204
346 349 346 343 343 341 338 338 334 328 319 308 305 312 315 316 311 306 303 299 296 292 287 281 277 275 273 272 271 270 268 266 264 260 254 251 250 249 250 247 242 239 235 232 230 229 229 228 228 227 225 227 229 225 221 220 218 217 218 214 211 209 203
356 359 354 352 353 348 344 344 339 334 329 319 308 302 305 311 312 307 303 303 302 298 293 289 283 277 274 273 271 269 267 265 264 261 257 256 253 251 251 249 245 242 235 230 228 226 228 230 229 227 226 227 229 226 222 221 221 221 219 214 210 207 201
2 1 355 357 356 351 351 351 345 340 333 322 311 303 299 302 303 301 302 305 305 303 300 295 288 280 274 272 271 269 267 268 270 266 261 260 258 256 256 253 248 244 238 234 231 229 229 230 229 227 226 227 226 223 220 221 223 223 223 218 208 203 201
5 359 355 358 354 353 357 353 346 342 333 323 314 305 299 298 296 296 297 298 300 306 306 297 291 288 281 276 274 270 267 268 271 269 263 262 261 260 259 254 249 246 240 236 235 232 231 230 228 228 228 228 227 224 222 222 223 223 223 220 211 203 200
3 356 354 355 351 355 359 352 348 346 337 326 317 308 302 297 295 293 291 290 290 299 303 299 297 297 291 286 282 276 271 267 267 266 265 265 263 260 258 254 250 247 243 242 239 235 231 230 230 230 229 230 230 230 229 225 222 223 223 219 215 207 201
1 356 354 353 353 358 359 356 357 356 348 339 330 320 311 301 296 294 292 292 290 288 293 299 303 302 293 286 282 281 276 268 264 265 265 264 263 261 258 255 251 248 246 245 242 238 235 232 230 229 228 230 230 230 230 225 220 222 222 217 216 212 205
1 357 355 357 358 359 1 3 5 5 3 358 348 338 330 317 307 300 297 296 293 289 289 288 288 295 296 287 279 277 279 273 265 262 262 263 264 263 258 254 250 246 246 245 242 241 239 233 229 229 229 231 230 229 230 226 222 223 218 215 218 219 213
3 1 0 1 1 1 5 7 8 10 13 10 5 358 350 342 332 322 313 308 302 297 292 284 279 282 289 290 283 275 273 274 269 263 262 264 265 263 259 254 250 247 249 248 245 244 239 231 228 230 231 231 231 231 229 224 224 228 221 214 215 216 213
7 6 3 3 3 4 7 8 8 11 14 14 14 13 8 3 357 350 342 335 326 313 300 290 285 282 281 281 281 276 271 270 271 267 262 262 262 262 261 256 252 251 252 249 244 240 234 227 225 226 228 231 232 231 227 220 219 226 222 212 211 212 212
9 8 6 5 5 4 6 9 10 11 13 14 13 13 16 16 11 5 2 355 350 341 321 306 298 292 286 279 276 276 274 270 269 268 265 263 262 262 261 257 254 253 252 247 240 232 228 226 224 223 224 228 230 229 225 220 221 225 221 215 212 211 212
9 9 7 7 5 2 4 8 10 11 13 12 10 9 12 16 17 14 11 8 4 359 350 338 325 310 298 287 277 272 271 270 268 267 267 265 263 261 260 259 257 253 246 242 236 229 227 227 224 221 221 224 227 227 223 222 225 226 222 219 218 214 213
9 8 7 7 6 2 2 3 6 9 12 12 11 9 8 11 16 17 16 15 11 7 3 360 354 342 324 303 286 274 270 268 267 266 265 265 264 262 259 258 258 252 242 237 233 226 225 225 222 219 220 223 222 219 219 221 223 221 216 216 220 220 216
8 8 7 6 6 4 3 1 0 4 9 11 10 10 8 8 12 16 17 18 15 10 7 3 360 356 347 331 305 285 274 269 268 267 266 265 263 262 260 258 255 247 238 234 232 226 221 221 219 218 221 224 220 214 216 219 217 215 210 209 215 219 217
10 10 9 8 7 5 5 3 359 360 4 6 7 8 8 8 10 13 16 18 18 14 9 5 2 359 355 347 333 308 285 274 271 271 269 267 263 260 257 252 246 239 235 233 231 227 222 217 214 216 220 221 219 216 216 215 211 211 212 210 213 218 219
15 15 13 11 9 7 7 5 2 1 1 1 2 7 9 7 8 12 13 15 18 17 13 9 5 4 1 356 350 345 327 298 280 274 271 268 263 257 250 243 236 229 228 227 224 224 223 217 213 215 215 212 211 214 217 214 210 210 212 213 214 218 222
16 16 15 13 9 8 7 4 2 4 4 360 358 4 11 10 9 13 15 16 18 18 16 13 9 7 7 4 1 1 355 335 301 284 278 272 267 255 242 236 229 218 215 219 221 220 219 216 214 213 210 206 205 209 214 213 210 210 209 210 213 213 214
18 17 17 15 9 6 7 5 3 5 7 3 360 4 11 13 14 16 18 17 18 19 17 15 12 10 10 11 13 13 3 347 327 305 284 273 267 250 231 224 219 211 209 211 213 211 208 209 212 211 208 204 202 203 208 209 210 209 205 206 211 209 205
21 18 18 18 13 9 10 8 5 7 8 7 7 10 13 14 16 20 23 22 21 21 20 17 14 13 13 15 20 24 20 12 5 358 324 273 253 226 215 215 211 201 195 193 193 198 200 201 203 203 202 200 199 203 206 202 199 199 197 199 205 204 201
25 21 19 21 16 13 16 14 9 10 11 10 12 15 17 18 16 19 25 27 26 24 22 19 17 16 17 17 19 24 28 28 23 12 352 323 196 149 166 184 187 176 171 174 184 188 188 187 188 191 194 195 194 197 196 190 186 189 194 197 198 198 198
27 23 21 23 18 14 19 22 19 17 17 18 18 17 19 21 20 19 24 26 27 26 25 25 24 22 22 21 19 21 27 30 30 25 14 6 58 96 112 130 145 148 151 165 180 181 177 179 184 187 182 176 173 176 181 183 186 192 195 197 199 198 194
27 25 21 22 20 16 19 24 26 25 24 25 25 24 23 23 21 19 19 20 21 23 25 29 31 30 29 29 27 27 30 33 35 32 30 39 60 72 87 108 125 133 146 162 171 174 173 174 176 169 156 152 158 166 177 183 187 192 192 193 195 192 184
24 27 24 21 20 18 19 24 27 28 28 28 27 27 28 27 23 21 20 19 20 21 22 26 30 32 32 33 33 33 33 35 37 33 30 37 54 67 81 105 125 135 150 160 164 167 166 159 156 150 141 142 151 165 179 183 183 185 182 178 179 177 170
Height
1525 1526 1525 1525 1525 1525 1525 1525 1524 1523 1523 1522 1523 1523 1524 1524 1524 1523 1523 1523 1522 1522 1521 1520 1520 1519 1520 1520 1520 1521 1522 1522 1523 1524 1527 1529 1530 1532 1535 1537 1538 1539 1538 1538 1539 1540 1540 1540 1541 1542 1542 1543 1544 1544 1545 1546 1546 1547 1547 1548 1549 1550 1551
1524 1524 1524 1523 1523 1524 1524 1524 1523 1522 1522 1521 1521 1522 1523 1524 1524 1523 1523 1522 1521 1521 1520 1519 1519 1518 1518 1519 1519 1519 1519 1519 1520 1521 1523 1525 1527 1529 1532 1534 1535 1536 1536 1536 1537 1537 1538 1538 1539 1540 1541 1542 1542 1542 1543 1544 1544 1545 1546 1547 1548 1548 1550
1521 1522 1522 1522 1522 1522 1522 1522 1522 1521 1521 1520 1520 1520 1520 1522 1523 1523 1522 1521 1520 1520 1519 1518 1517 1517 1516 1517 1517 1518 1518 1518 1518 1519 1520 1522 1525 1527 1529 1530 1531 1532 1533 1533 1534 1535 1536 1536 1537 1538 1539 1539 1539 1539 1540 1541 1542 1543 1544 1545 1546 1547 1548
1519 1519 1519 1520 1520 1520 1520 1520 1520 1520 1519 1519 1519 1519 1519 1519 1520 1521 1521 1521 1520 1519 1518 1518 1517 1516 1515 1516 1516 1517 1517 1517 1517 1517 1519 1520 1522 1524 1526 1526 1527 1529 1530 1530 1531 1532 1533 1533 1535 1535 1536 1537 1538 1538 1538 1539 1540 1541 1542 1543 1544 1545 1546
1517 1517 1518 1518 1518 1518 1518 1518 1518 1518 1517 1517 1517 1517 1517 1517 1517 1518 1519 1520 1520 1519 1518 1517 1516 1516 1515 1515 1515 1516 1516 1516 1516 1517 1517 1518 1519 1521 1522 1523 1524 1526 1526 1527 1528 1529 1530 1531 1532 1532 1534 1536 1537 1536 1536 1537 1538 1539 1540 1541 1543 1543 1545
1515 1516 1516 1516 1517 1517 1517 1517 1516 1516 1515 1515 1515 1515 1515 1514 1514 1515 1516 1517 1517 1516 1515 1515 1515 1515 1514 1514 1515 1515 1516 1516 1515 1515 1515 1516 1517 1517 1519 1520 1521 1522 1523 1524 1525 1526 1527 1528 1529 1529 1531 1534 1534 1533 1534 1535 1536 1538 1538 1540 1541 1542 1542
1514 1514 1515 1515 1516 1516 1516 1515 1515 1514 1513 1513 1513 1513 1513 1513 1512 1513 1513 1514 1513 1513 1512 1512 1512 1512 1512 1513 1513 1513 1514 1514 1514 1513 1513 1514 1514 1515 1516 1517 1518 1519 1520 1521 1522 1523 1524 1524 1526 1527 1529 1532 1532 1532 1532 1532 1534 1535 1536 1537 1539 1540 1541
1513 1513 1513 1514 1514 1514 1514 1513 1513 1512 1512 1512 1511 1512 1512 1512 1512 1511 1511 1511 1511 1510 1510 1510 1509 1509 1509 1511 1511 1511 1511 1511 1512 1511 1511 1511 1512 1512 1513 1514 1515 1516 1517 1518 1519 1520 1521 1522 1524 1525 1527 1530 1532 1531 1530 1531 1532 1532 1534 1535 1537 1538 1539
1513 1513 1512 1513 1513 1513 1513 1512 1511 1511 1510 1510 1510 1510 1510 1510 1510 1510 1509 1509 1508 1508 1508 1508 1507 1506 1506 1508 1509 1510 1508 1508 1508 1508 1509 1509 1509 1510 1511 1512 1512 1513 1514 1515 1516 1517 1518 1520 1521 1523 1524 1526 1530 1530 1528 1528 1530 1530 1532 1533 1534 1536 1537
1513 1512 1512 1512 1512 1512 1512 1511 1511 1510 1509 1509 1508 1508 1507 1507 1507 1507 1507 1507 1506 1506 1506 1506 1505 1505 1505 1506 1507 1507 1506 1506 1506 1505 1506 1506 1506 1507 1507 1508 1509 1510 1512 1513 1514 1515 1515 1517 1518 1520 1521 1523 1527 1528 1526 1526 1527 1528 1530 1531 1532 1534 1535
1512 1512 1511 1511 1510 1510 1511 1511 1510 1509 1508 1507 1507 1506 1506 1505 1505 1505 1504 1504 1504 1504 1504 1504 1504 1503 1504 1504 1504 1504 1504 1504 1503 1502 1502 1502 1503 1504 1504 1505 1506 1508 1509 1510 1511 1512 1513 1514 1515 1517 1518 1520 1523 1525 1524 1524 1525 1526 1527 1529 1530 1532 1533
1512 1511 1510 1509 1509 1509 1509 1509 1508 1508 1507 1506 1505 1505 1504 1504 1503 1503 1502 1502 1502 1502 1502 1502 1502 1502 1502 1502 1501 1501 1501 1501 1500 1500 1500 1500 1500 1501 1501 1502 1503 1505 1506 1507 1508 1509 1510 1511 1513 1514 1516 1518 1520 1521 1522 1522 1523 1525 1526 1527 1528 1530 1531
1511 1510 1509 1509 1508 1507 1507 1507 1506 1506 1505 1504 1504 1503 1503 1502 1502 1501 1500 1500 1500 1500 1500 1500 1500 1500 1500 1500 1499 1499 1499 1500 1499 1498 1498 1497 1497 1498 1498 1499 1500 1502 1503 1505 1506 1507 1508 1509 1510 1512 1513 1515 1516 1518 1519 1520 1521 1523 1525 1526 1527 1528 1529
1511 1510 1509 1508 1508 1506 1505 1505 1504 1504 1503 1503 1502 1502 1501 1501 1501 1500 1499 1499 1499 1498 1498 1498 1498 1498 1497 1497 1497 1497 1497 1498 1499 1498 1497 1496 1495 1495 1495 1496 1497 1499 1501 1502 1503 1504 1505 1506 1508 1509 1510 1511 1513 1515 1517 1518 1519 1520 1522 1524 1525 1526 1527
1511 1510 1509 1509 1507 1506 1504 1503 1502 1502 1501 1501 1500 1500 1500 1499 1499 1499 1498 1498 1498 1497 1496 1496 1495 1495 1495 1495 1495 1494 1494 1495 1496 1496 1495 1493 1492 1492 1493 1494 1495 1496 1498 1500 1501 1502 1503 1504 1505 1506 1507 1509 1510 1513 1514 1515 1517 1518 1519 1521 1522 1523 1524
1511 1510 1509 1508 1507 1505 1504 1502 1501 1500 1499 1498 1498 1498 1498 1498 1497 1497 1496 1497 1496 1496 1495 1493 1493 1493 1493 1493 1492 1491 1491 1491 1493 1493 1493 1491 1490 1490 1491 1491 1492 1493 1495 1496 1498 1499 1500 1502 1503 1503 1505 1506 1508 1510 1511 1512 1514 1515 1516 1517 1519 1520 1522
1512 1511 1510 1509 1507 1505 1503 1501 1500 1499 1498 1497 1496 1496 1496 1495 1495 1495 1494 1495 1494 1494 1493 1492 1492 1491 1490 1491 1490 1489 1489 1489 1490 1491 1491 1490 1489 1489 1490 1490 1490 1491 1493 1494 1495 1496 1498 1498 1499 1500 1501 1503 1505 1507 1508 1510 1512 1513 1514 1515 1516 1517 1519
1513 1513 1512 1510 1508 1505 1503 1501 1500 1498 1497 1496 1495 1495 1494 1493 1493 1493 1492 1492 1492 1492 1491 1491 1490 1488 1488 1488 1488 1488 1487 1487 1488 1489 1490 1489 1487 1487 1487 1487 1489 1490 1491 1492 1492 1493 1495 1495 1497 1497 1498 1500 1502 1503 1505 1507 1508 1509 1511 1513 1514 1515 1516
1515 1514 1512 1511 1509 1506 1504 1501 1499 1498 1496 1495 1494 1493 1492 1492 1491 1491 1491 1490 1490 1489 1489 1488 1487 1486 1485 1485 1486 1486 1485 1484 1485 1486 1487 1488 1486 1484 1484 1484 1486 1487 1487 1488 1489 1491 1492 1493 1494 1494 1495 1497 1499 1499 1500 1503 1506 1506 1508 1511 1513 1512 1512
1515 1514 1513 1511 1509 1506 1504 1502 1499 1497 1496 1494 1493 1492 1491 1490 1489 1489 1489 1488 1488 1487 1486 1485 1484 1484 1483 1482 1482 1482 1482 1482 1482 1482 1484 1485 1484 1482 1481 1481 1481 1483 1484 1485 1486 1488 1489 1490 1491 1491 1493 1494 1496 1497 1498 1500 1503 1504 1505 1509 1511 1510 1510
1516 1515 1513 1511 1509 1507 1504 1502 1499 1497 1495 1493 1492 1491 1490 1488 1487 1487 1486 1485 1485 1485 1484 1483 1481 1480 1478 1478 1479 1479 1478 1479 1479 1479 1479 1479 1479 1478 1478 1477 1477 1479 1481 1482 1484 1485 1486 1487 1488 1489 1490 1492 1494 1495 1496 1498 1501 1501 1503 1506 1509 1509 1509
1516 1514 1513 1511 1509 1507 1504 1502 1500 1498 1495 1493 1492 1490 1489 1487 1485 1484 1483 1483 1482 1482 1482 1480 1478 1476 1475 1475 1475 1475 1475 1476 1476 1475 1475 1474 1475 1475 1475 1474 1475 1476 1477 1478 1480 1482 1484 1484 1485 1486 1487 1489 1491 1493 1493 1496 1499 1499 1500 1503 1506 1509 1509
1516 1514 1512 1510 1509 1506 1504 1502 1500 1498 1496 1494 1492 1490 1488 1486 1484 1483 1481 1480 1480 1480 1479 1476 1474 1474 1474 1473 1472 1472 1472 1472 1472 1472 1471 1470 1471 1471 1471 1471 1471 1472 1473 1474 1476 1478 1480 1481 1482 1483 1484 1486 1488 1490 1490 1492 1495 1496 1497 1499 1502 1505 1507
1516 1514 1512 1510 1508 1506 1504 1502 1500 1498 1496 1494 1492 1490 1488 1486 1484 1482 1480 1479 1478 1477 1475 1473 1471 1470 1471 1470 1470 1468 1468 1468 1468 1468 1467 1467 1467 1467 1467 1467 1467 1469 1470 1470 1472 1474 1475 1478 1479 1480 1481 1483 1485 1486 1486 1488 1491 1493 1494 1495 1497 1500 1502
1516 1515 1513 1511 1509 1506 1504 1502 1500 1498 1496 1495 1493 1491 1489 1486 1484 1482 1480 1478 1476 1475 1473 1471 1468 1467 1466 1466 1466 1464 1464 1464 1463 1463 1463 1463 1463 1463 1463 1463 1463 1465 1466 1466 1468 1470 1472 1474 1475 1476 1478 1480 1481 1481 1482 1485 1488 1489 1491 1492 1494 1496 1499
1516 1515 1513 1512 1510 1507 1505 1503 1500 1499 1497 1495 1494 1492 1489 1487 1485 1482 1480 1478 1476 1474 1472 1469 1467 1464 1461 1461 1460 1459 1459 1459 1459 1458 1459 1459 1459 1458 1459 1459 1459 1461 1463 1463 1465 1468 1470 1471 1472 1473 1475 1477 1477 1477 1479 1483 1485 1487 1489 1490 1491 1493 1496
1517 1516 1515 1513 1511 1509 1506 1504 1502 1500 1498 1496 1494 1492 1490 1488 1485 1483 1480 1478 1476 1473 1471 1468 1465 1462 1459 1456 1455 1454 1454 1454 1454 1454 1454 1454 1454 1454 1455 1455 1456 1458 1459 1460 1462 1465 1468 1469 1470 1472 1473 1474 1474 1476 1478 1481 1483 1485 1488 1489 1490 1491 1493
1519 1517 1516 1514 1512 1510 1508 1506 1503 1501 1498 1497 1495 1493 1491 1489 1486 1483 1481 1478 1476 1474 1471 1467 1464 1460 1457 1453 1450 1449 1448 1449 1450 1451 1451 1451 1450 1451 1452 1452 1453 1456 1457 1457 1459 1462 1465 1467 1468 1470 1471 1472 1473 1475 1477 1479 1482 1484 1486 1487 1488 1489 1491
1520 1518 1517 1515 1513 1511 1509 1507 1504 1502 1500 1498 1496 1494 1492 1490 1487 1484 1482 1479 1476 1474 1471 1467 1463 1460 1455 1451 1448 1446 1445 1445 1447 1447 1447 1447 1447 1448 1449 1449 1450 1453 1455 1455 1457 1459 1462 1464 1465 1466 1467 1469 1472 1475 1477 1479 1481 1482 1484 1486 1487 1488 1489
1521 1519 1517 1516 1514 1512 1510 1508 1506 1503 1501 1499 1497 1495 1493 1491 1488 1486 1483 1480 1477 1474 1471 1467 1464 1460 1456 1451 1447 1445 1443 1443 1444 1444 1444 1444 1444 1444 1445 1446 1447 1449 1452 1453 1455 1457 1459 1462 1462 1462 1463 1467 1470 1473 1475 1477 1479 1480 1482 1484 1485 1486 1487
1522 1520 1518 1517 1515 1513 1511 1509 1507 1505 1503 1501 1498 1496 1494 1492 1490 1487 1484 1481 1478 1475 1472 1468 1465 1462 1458 1453 1449 1446 1444 1444 1443 1442 1442 1442 1442 1441 1440 1441 1444 1447 1449 1451 1454 1456 1458 1460 1461 1461 1462 1465 1468 1471 1473 1475 1476 1478 1479 1481 1483 1485 1486
1523 1521 1520 1518 1516 1514 1512 1510 1508 1506 1504 1502 1500 1498 1496 1494 1491 1488 1485 1482 1479 1476 1473 1470 1466 1463 1460 1456 1453 1450 1448 1446 1444 1443 1442 1441 1441 1440 1438 1439 1442 1444 1447 1450 1452 1454 1457 1458 1459 1460 1462 1464 1466 1469 1471 1473 1474 1475 1477 1479 1481 1483 1484
1524 1523 1521 1519 1518 1516 1513 1511 1509 1506 1504 1503 1501 1499 1497 1495 1493 1490 1487 1484 1481 1478 1475 1472 1468 1465 1462 1460 1456 1453 1451 1449 1447 1446 1445 1443 1441 1439 1436 1437 1440 1441 1444 1448 1451 1453 1455 1457 1458 1460 1462 1463 1465 1468 1469 1471 1473 1474 1475 1477 1479 1481 1483
1526 1525 1523 1521 1519 1517 1514 1512 1509 1507 1505 1503 1501 1500 1498 1496 1494 1492 1489 1486 1483 1480 1477 1474 1471 1468 1465 1462 1460 1457 1454 1452 1451 1449 1448 1447 1444 1439 1435 1436 1439 1440 1442 1447 1452 1453 1455 1457 1459 1461 1462 1463 1465 1466 1468 1469 1471 1473 1475 1476 1478 1480 1481
1528 1527 1525 1523 1521 1518 1515 1513 1510 1508 1506 1504 1502 1501 1499 1497 1496 1493 1491 1489 1486 1483 1480 1477 1474 1471 1467 1464 1462 1460 1457 1455 1454 1452 1451 1450 1448 1443 1439 1438 1440 1441 1443 1447 1452 1454 1455 1458 1460 1461 1462 1462 1463 1465 1467 1468 1470 1472 1474 1475 1477 1479 1480
1530 1528 1526 1524 1523 1520 1517 1515 1512 1510 1507 1505 1503 1502 1500 1498 1496 1494 1492 1490 1488 1486 1483 1480 1477 1474 1470 1468 1465 1463 1461 1458 1457 1456 1454 1452 1451 1448 1445 1443 1443 1444 1445 1449 1452 1454 1457 1458 1460 1460 1461 1462 1463 1465 1466 1468 1469 1471 1473 1474 1476 1478 1479
1531 1530 1528 1526 1524 1522 1520 1517 1514 1512 1510 1507 1506 1504 1502 1500 1498 1496 1494 1492 1490 1488 1486 1483 1480 1477 1474 1472 1469 1466 1464 1462 1460 1458 1457 1455 1453 1451 1449 1448 1448 1448 1449 1451 1452 1455 1457 1459 1459 1460 1461 1463 1464 1466 1467 1468 1469 1471 1472 1474 1476 1478 1480